Time,TemperatureF,DewpointF,PressureIn,WindDirection,WindDirectionDegrees,WindSpeedMPH,WindSpeedGustMPH,Humidity,HourlyPrecipIn,Conditions,Clouds,dailyrainin,SolarRadiationWatts/m^2,SoftwareType,DateUTC
2013-04-15 00:04:00,70.9,67.8,29.70,SSE,154,18.4,18.4,90,0.00,CLR,,0.00,1.0,WeatherDisplay:10.37,2013-04-15 05:04:00,
2013-04-15 00:09:00,70.9,67.8,29.70,South,177,19.6,19.6,90,0.00,CLR,,0.00,1.0,WeatherDisplay:10.37,2013-04-15 05:09:00,
2013-04-15 00:14:00,70.9,67.8,29.70,SE,143,17.3,17.3,90,0.00,CLR,,0.00,1.0,WeatherDisplay:10.37,2013-04-15 05:14:00,
2013-04-15 00:19:00,70.9,67.8,29.70,SSE,148,20.7,20.7,90,0.00,CLR,,0.00,1.0,WeatherDisplay:10.37,2013-04-15 05:19:00,
2013-04-15 00:24:00,70.9,67.8,29.70,SSE,168,20.7,20.7,90,0.00,CLR,,0.00,1.0,WeatherDisplay:10.37,2013-04-15 05:24:00,
2013-04-15 00:29:00,70.9,67.8,29.70,South,170,18.4,18.4,90,0.00,CLR,,0.00,1.0,WeatherDisplay:10.37,2013-04-15 05:29:00,
2013-04-15 00:34:00,70.9,67.8,29.70,South,169,19.6,19.6,90,0.00,CLR,,0.00,1.0,WeatherDisplay:10.37,2013-04-15 05:34:00,
2013-04-15 00:39:00,70.9,67.8,29.70,South,177,21.9,21.9,90,0.00,CLR,,0.00,1.0,WeatherDisplay:10.37,2013-04-15 05:39:00,
2013-04-15 00:44:00,70.8,67.7,29.70,South,174,21.9,21.9,90,0.00,CLR,,0.00,1.0,WeatherDisplay:10.37,2013-04-15 05:44:00,
2013-04-15 00:50:00,70.7,67.6,29.71,SSE,159,17.3,17.3,90,0.00,CLR,,0.00,1.0,WeatherDisplay:10.37,2013-04-15 05:50:00,
2013-04-15 00:55:00,70.6,67.5,29.70,SSE,166,12.0,20.0,90,0.00,CLR,,0.00,0.0,WeatherDisplay:10.37,2013-04-15 05:55:00,
2013-04-15 01:00:00,70.5,67.7,29.70,SSE,165,12.0,22.0,91,0.00,CLR,,0.00,0.0,WeatherDisplay:10.37,2013-04-15 06:00:00,
2013-04-15 01:05:00,70.4,67.6,29.70,SSE,167,13.0,22.0,91,0.00,CLR,,0.00,0.0,WeatherDisplay:10.37,2013-04-15 06:05:00,
2013-04-15 01:10:00,70.3,67.5,29.70,SSE,167,17.0,23.0,91,0.00,CLR,,0.00,0.0,WeatherDisplay:10.37,2013-04-15 06:10:00,
2013-04-15 01:15:00,70.2,67.4,29.70,SSE,167,13.0,22.0,91,0.00,CLR,,0.00,0.0,WeatherDisplay:10.37,2013-04-15 06:15:00,
2013-04-15 01:20:00,70.1,67.7,29.70,SSE,168,13.0,23.0,92,0.00,CLR,,0.00,0.0,WeatherDisplay:10.37,2013-04-15 06:20:00,
2013-04-15 01:25:00,69.9,67.5,29.70,SSE,168,13.0,23.0,92,0.00,CLR,,0.00,0.0,WeatherDisplay:10.37,2013-04-15 06:25:00,
2013-04-15 01:30:00,69.8,67.7,29.70,South,190,19.6,19.6,93,0.00,CLR,,0.00,1.0,WeatherDisplay:10.37,2013-04-15 06:30:00,
2013-04-15 01:35:00,69.7,67.6,29.70,SSE,168,13.0,23.0,93,0.00,CLR,,0.00,0.0,WeatherDisplay:10.37,2013-04-15 06:35:00,
2013-04-15 01:40:00,69.5,67.4,29.70,SSE,168,13.0,20.0,93,0.00,CLR,,0.00,0.0,WeatherDisplay:10.37,2013-04-15 06:40:00,
2013-04-15 01:45:00,69.4,67.6,29.70,SSE,168,14.0,21.0,94,0.00,CLR,,0.00,0.0,WeatherDisplay:10.37,2013-04-15 06:45:00,
2013-04-15 01:50:00,69.2,67.4,29.70,South,170,20.7,20.7,94,0.00,CLR,,0.00,1.0,WeatherDisplay:10.37,2013-04-15 06:50:00,
2013-04-15 01:55:00,69.1,67.6,29.70,South,178,20.7,20.7,95,0.00,CLR,,0.00,1.0,WeatherDisplay:10.37,2013-04-15 06:55:00,
2013-04-15 02:00:00,69.0,67.5,29.70,SSW,194,18.4,18.4,95,0.00,CLR,,0.00,1.0,WeatherDisplay:10.37,2013-04-15 07:00:00,
2013-04-15 02:06:00,69.0,67.8,29.70,South,173,19.6,19.6,96,0.00,CLR,,0.00,1.0,WeatherDisplay:10.37,2013-04-15 07:06:00,
2013-04-15 02:41:00,68.4,67.8,29.70,South,175,18.4,18.4,98,0.00,CLR,,0.00,1.0,WeatherDisplay:10.37,2013-04-15 07:41:00,
2013-04-15 02:42:00,68.4,67.8,29.70,South,177,16.1,16.1,98,0.00,CLR,,0.00,1.0,WeatherDisplay:10.37,2013-04-15 07:42:00,
2013-04-15 02:43:00,68.4,67.8,29.70,South,177,19.6,19.6,98,0.00,CLR,,0.00,1.0,WeatherDisplay:10.37,2013-04-15 07:43:00,
2013-04-15 02:47:00,68.4,67.8,29.70,South,169,17.3,17.3,98,0.00,CLR,,0.00,1.0,WeatherDisplay:10.37,2013-04-15 07:47:00,
2013-04-15 02:48:00,68.3,67.7,29.70,SSE,149,17.3,17.3,98,0.00,CLR,,0.00,1.0,WeatherDisplay:10.37,2013-04-15 07:48:00,
2013-04-15 02:49:00,68.3,67.7,29.70,SSE,161,19.6,19.6,98,0.00,CLR,,0.00,1.0,WeatherDisplay:10.37,2013-04-15 07:49:00,
2013-04-15 02:54:00,68.2,67.9,29.70,South,170,19.6,19.6,99,0.00,CLR,,0.00,1.0,WeatherDisplay:10.37,2013-04-15 07:54:00,
2013-04-15 02:59:00,68.1,67.8,29.70,South,174,18.4,18.4,99,0.00,CLR,,0.00,1.0,WeatherDisplay:10.37,2013-04-15 07:59:00,
2013-04-15 03:04:00,68.0,67.7,29.70,South,171,16.1,16.1,99,0.00,CLR,,0.00,1.0,WeatherDisplay:10.37,2013-04-15 08:04:00,
2013-04-15 03:10:00,68.0,67.7,29.70,SSE,165,23.0,23.0,99,0.00,CLR,,0.00,1.0,WeatherDisplay:10.37,2013-04-15 08:10:00,
2013-04-15 03:15:00,67.9,67.9,29.70,South,171,15.0,21.0,100,0.00,CLR,,0.00,0.0,WeatherDisplay:10.37,2013-04-15 08:15:00,
2013-04-15 03:20:00,67.9,67.9,29.70,South,184,18.4,18.4,100,0.00,CLR,,0.00,1.0,WeatherDisplay:10.37,2013-04-15 08:20:00,
2013-04-15 03:25:00,67.8,67.8,29.70,SSW,194,15.0,15.0,100,0.00,CLR,,0.00,1.0,WeatherDisplay:10.37,2013-04-15 08:25:00,
2013-04-15 03:30:00,67.8,67.8,29.70,SSE,155,17.3,17.3,100,0.00,CLR,,0.00,1.0,WeatherDisplay:10.37,2013-04-15 08:30:00,
2013-04-15 03:35:00,67.8,67.8,29.70,SSE,165,18.4,18.4,100,0.00,CLR,,0.00,1.0,WeatherDisplay:10.37,2013-04-15 08:35:00,
2013-04-15 03:38:00,67.8,67.8,29.70,South,177,23.0,23.0,100,0.00,CLR,,0.00,1.0,WeatherDisplay:10.37,2013-04-15 08:38:00,
2013-04-15 03:40:00,67.8,67.8,29.70,South,173,13.0,23.0,100,0.00,CLR,,0.00,0.0,WeatherDisplay:10.37,2013-04-15 08:40:00,
2013-04-15 03:43:00,67.6,67.6,29.70,SSE,154,15.0,15.0,100,0.00,CLR,,0.00,2.0,WeatherDisplay:10.37,2013-04-15 08:43:00,
2013-04-15 03:48:00,67.6,67.6,29.70,South,179,24.2,24.2,100,0.00,CLR,,0.00,1.0,WeatherDisplay:10.37,2013-04-15 08:48:00,
2013-04-15 03:53:00,67.6,67.6,29.70,South,171,17.3,17.3,100,0.00,CLR,,0.00,1.0,WeatherDisplay:10.37,2013-04-15 08:53:00,
2013-04-15 03:59:00,67.5,67.5,29.70,South,182,20.7,20.7,100,0.00,CLR,,0.00,1.0,WeatherDisplay:10.37,2013-04-15 08:59:00,
2013-04-15 04:04:00,67.6,67.6,29.70,SSW,202,17.3,17.3,100,0.00,CLR,,0.00,1.0,WeatherDisplay:10.37,2013-04-15 09:04:00,
2013-04-15 04:09:00,67.6,67.6,29.71,SSE,159,16.1,16.1,100,0.00,CLR,,0.00,1.0,WeatherDisplay:10.37,2013-04-15 09:09:00,
2013-04-15 04:14:00,67.6,67.6,29.71,SSW,199,18.4,18.4,100,0.00,CLR,,0.00,1.0,WeatherDisplay:10.37,2013-04-15 09:14:00,
2013-04-15 04:19:00,67.7,67.7,29.71,SW,214,19.6,19.6,100,0.00,CLR,,0.00,1.0,WeatherDisplay:10.37,2013-04-15 09:19:00,
2013-04-15 04:24:00,67.8,67.8,29.71,SSW,209,20.7,20.7,100,0.00,CLR,,0.00,1.0,WeatherDisplay:10.37,2013-04-15 09:24:00,
2013-04-15 04:29:00,67.8,67.8,29.71,South,181,19.6,19.6,100,0.00,CLR,,0.00,1.0,WeatherDisplay:10.37,2013-04-15 09:29:00,
2013-04-15 04:35:00,67.9,67.9,29.71,South,176,17.7,17.7,100,0.00,CLR,,0.00,1.0,WeatherDisplay:10.37,2013-04-15 09:35:00,
2013-04-15 04:40:00,68.0,68.0,29.71,South,180,19.6,19.6,100,0.00,CLR,,0.00,1.0,WeatherDisplay:10.37,2013-04-15 09:40:00,
2013-04-15 04:45:00,68.1,68.1,29.72,South,178,16.0,28.0,100,0.00,CLR,,0.00,0.0,WeatherDisplay:10.37,2013-04-15 09:45:00,
2013-04-15 04:50:00,68.2,68.2,29.72,South,182,15.0,22.0,100,0.00,CLR,,0.00,1.0,WeatherDisplay:10.37,2013-04-15 09:50:00,
2013-04-15 04:55:00,68.3,68.3,29.72,South,184,15.0,28.0,100,0.00,CLR,,0.00,0.0,WeatherDisplay:10.37,2013-04-15 09:55:00,
2013-04-15 05:00:00,68.3,68.3,29.72,South,185,14.0,27.0,100,0.00,CLR,,0.00,0.0,WeatherDisplay:10.37,2013-04-15 10:00:00,
2013-04-15 05:05:00,68.4,68.4,29.72,South,187,15.0,26.0,100,0.00,CLR,,0.00,0.0,WeatherDisplay:10.37,2013-04-15 10:05:00,
2013-04-15 05:10:00,68.4,68.4,29.72,South,187,18.0,27.0,100,0.00,CLR,,0.00,0.0,WeatherDisplay:10.37,2013-04-15 10:10:00,
2013-04-15 05:15:00,68.4,68.4,29.73,South,185,24.6,24.6,100,0.00,CLR,,0.00,1.0,WeatherDisplay:10.37,2013-04-15 10:15:00,
2013-04-15 05:20:00,68.4,68.4,29.73,South,187,13.0,30.0,100,0.00,CLR,,0.00,0.0,WeatherDisplay:10.37,2013-04-15 10:20:00,
2013-04-15 05:25:00,68.4,68.4,29.73,South,189,15.0,23.0,100,0.00,CLR,,0.00,0.0,WeatherDisplay:10.37,2013-04-15 10:25:00,
2013-04-15 05:30:00,68.4,68.4,29.73,SSW,192,21.9,21.9,100,0.00,CLR,,0.00,1.0,WeatherDisplay:10.37,2013-04-15 10:30:00,
2013-04-15 05:35:00,68.4,68.4,29.73,South,187,17.0,26.0,100,0.00,CLR,,0.00,0.0,WeatherDisplay:10.37,2013-04-15 10:35:00,
2013-04-15 05:40:00,68.5,68.5,29.74,South,189,12.0,26.0,100,0.00,CLR,,0.00,0.0,WeatherDisplay:10.37,2013-04-15 10:40:00,
2013-04-15 05:45:00,68.5,68.5,29.74,South,188,19.6,19.6,100,0.00,CLR,,0.00,1.0,WeatherDisplay:10.37,2013-04-15 10:45:00,
2013-04-15 05:50:00,68.5,68.5,29.74,South,182,19.6,19.6,100,0.00,CLR,,0.00,1.0,WeatherDisplay:10.37,2013-04-15 10:50:00,
2013-04-15 05:55:00,68.5,68.5,29.74,South,172,19.6,19.6,100,0.00,CLR,,0.00,1.0,WeatherDisplay:10.37,2013-04-15 10:55:00,
2013-04-15 06:01:00,68.5,68.5,29.74,South,185,19.6,19.6,100,0.00,CLR,,0.00,1.0,WeatherDisplay:10.37,2013-04-15 11:01:00,
2013-04-15 06:06:00,68.5,68.5,29.74,SSW,196,25.3,25.3,100,0.00,CLR,,0.00,1.0,WeatherDisplay:10.37,2013-04-15 11:06:00,
2013-04-15 06:12:00,68.6,68.6,29.74,South,178,13.8,13.8,100,0.00,CLR,,0.00,0.0,WeatherDisplay:10.37,2013-04-15 11:12:00,
2013-04-15 06:17:00,68.6,68.6,29.74,South,184,26.5,26.5,100,0.00,CLR,,0.00,1.0,WeatherDisplay:10.37,2013-04-15 11:17:00,
2013-04-15 06:22:00,68.7,68.7,29.74,SSE,160,13.8,13.8,100,0.00,CLR,,0.00,1.0,WeatherDisplay:10.37,2013-04-15 11:22:00,
2013-04-15 06:27:00,68.7,68.7,29.74,SSW,192,18.4,18.4,100,0.00,OVC,,0.00,1.0,WeatherDisplay:10.37,2013-04-15 11:27:00,
2013-04-15 06:32:00,68.7,68.7,29.75,South,180,24.2,24.2,100,0.00,OVC,,0.00,1.0,WeatherDisplay:10.37,2013-04-15 11:32:00,
2013-04-15 06:38:00,68.8,68.8,29.75,South,173,19.6,19.6,100,0.00,OVC,,0.00,2.0,WeatherDisplay:10.37,2013-04-15 11:38:00,
2013-04-15 06:43:00,68.9,68.9,29.75,SSW,205,18.4,18.4,100,0.00,OVC,,0.00,2.0,WeatherDisplay:10.37,2013-04-15 11:43:00,
2013-04-15 06:48:00,68.9,68.9,29.76,South,181,18.9,18.9,100,0.00,OVC,,0.00,2.0,WeatherDisplay:10.37,2013-04-15 11:48:00,
2013-04-15 06:54:00,69.0,69.0,29.76,South,180,25.3,25.3,100,0.00,OVC,,0.00,3.0,WeatherDisplay:10.37,2013-04-15 11:54:00,
2013-04-15 06:59:00,69.1,69.1,29.76,SSW,200,16.1,16.1,100,0.00,OVC,,0.00,4.0,WeatherDisplay:10.37,2013-04-15 11:59:00,
2013-04-15 07:04:00,69.1,69.1,29.76,SW,216,23.0,23.0,100,0.00,OVC,,0.00,6.0,WeatherDisplay:10.37,2013-04-15 12:04:00,
2013-04-15 07:10:00,69.2,69.2,29.76,SSW,199,20.7,20.7,100,0.00,OVC,,0.00,8.0,WeatherDisplay:10.37,2013-04-15 12:10:00,
2013-04-15 07:15:00,69.3,69.3,29.76,South,189,15.0,28.0,100,0.00,OVC,,0.00,11.0,WeatherDisplay:10.37,2013-04-15 12:15:00,
2013-04-15 07:20:00,69.3,69.3,29.77,South,190,12.0,26.0,100,0.00,OVC,,0.00,15.0,WeatherDisplay:10.37,2013-04-15 12:20:00,
2013-04-15 07:25:00,69.4,69.4,29.77,South,190,19.6,19.6,100,0.00,OVC,,0.00,19.0,WeatherDisplay:10.37,2013-04-15 12:25:00,
2013-04-15 07:30:00,69.5,69.5,29.77,South,180,21.9,21.9,100,0.00,OVC,,0.00,26.0,WeatherDisplay:10.37,2013-04-15 12:30:00,
2013-04-15 07:36:00,69.6,69.6,29.78,SW,220,21.9,21.9,100,0.00,OVC,,0.00,29.0,WeatherDisplay:10.37,2013-04-15 12:36:00,
2013-04-15 07:41:00,69.6,69.6,29.78,SSW,205,20.7,20.7,100,0.00,OVC,,0.00,30.0,WeatherDisplay:10.37,2013-04-15 12:41:00,
2013-04-15 07:46:00,69.7,69.4,29.78,South,186,19.6,19.6,99,0.00,OVC,,0.00,37.0,WeatherDisplay:10.37,2013-04-15 12:46:00,
2013-04-15 07:52:00,69.7,69.4,29.78,SSW,206,21.9,21.9,99,0.00,OVC,,0.00,48.0,WeatherDisplay:10.37,2013-04-15 12:52:00,
2013-04-15 07:57:00,69.9,69.6,29.78,SSW,199,19.6,19.6,99,0.00,OVC,,0.00,54.0,WeatherDisplay:10.37,2013-04-15 12:57:00,
2013-04-15 08:02:00,70.0,69.7,29.78,South,182,20.7,20.7,99,0.00,OVC,,0.00,63.0,WeatherDisplay:10.37,2013-04-15 13:02:00,
2013-04-15 08:07:00,70.1,69.5,29.79,South,175,22.2,22.2,98,0.00,OVC,,0.00,66.0,WeatherDisplay:10.37,2013-04-15 13:07:00,
2013-04-15 08:13:00,70.2,69.6,29.79,SSW,211,18.4,18.4,98,0.00,OVC,,0.00,61.0,WeatherDisplay:10.37,2013-04-15 13:13:00,
2013-04-15 08:18:00,70.2,69.6,29.79,South,187,20.7,20.7,98,0.00,OVC,,0.00,67.0,WeatherDisplay:10.37,2013-04-15 13:18:00,
2013-04-15 08:23:00,70.3,69.4,29.80,South,180,19.6,19.6,97,0.00,OVC,,0.00,61.0,WeatherDisplay:10.37,2013-04-15 13:23:00,
2013-04-15 08:28:00,70.5,69.6,29.80,South,185,18.6,18.6,97,0.00,OVC,,0.00,74.0,WeatherDisplay:10.37,2013-04-15 13:28:00,
2013-04-15 08:34:00,70.5,69.6,29.80,SSW,193,17.3,17.3,97,0.00,OVC,,0.00,75.0,WeatherDisplay:10.37,2013-04-15 13:34:00,
2013-04-15 08:39:00,70.7,69.8,29.81,South,190,22.5,22.5,97,0.00,OVC,,0.00,89.0,WeatherDisplay:10.37,2013-04-15 13:39:00,
2013-04-15 08:44:00,70.8,69.6,29.81,SSE,163,18.4,18.4,96,0.00,OVC,,0.00,98.0,WeatherDisplay:10.37,2013-04-15 13:44:00,
2013-04-15 08:49:00,70.9,69.7,29.81,SW,227,18.4,18.4,96,0.00,OVC,,0.00,107.0,WeatherDisplay:10.37,2013-04-15 13:49:00,
2013-04-15 08:55:00,71.1,69.9,29.81,South,187,15.0,22.0,96,0.00,OVC,,0.00,106.0,WeatherDisplay:10.37,2013-04-15 13:55:00,
2013-04-15 09:00:00,71.1,69.6,29.81,SSW,192,20.0,31.0,95,0.00,OVC,,0.00,114.0,WeatherDisplay:10.37,2013-04-15 14:00:00,
2013-04-15 09:05:00,71.3,69.8,29.81,SSW,199,16.1,16.1,95,0.00,OVC,,0.00,161.0,WeatherDisplay:10.37,2013-04-15 14:05:00,
2013-04-15 09:10:00,71.5,70.0,29.81,South,178,16.1,16.1,95,0.00,OVC,,0.00,144.0,WeatherDisplay:10.37,2013-04-15 14:10:00,
2013-04-15 09:15:00,71.7,69.9,29.81,South,191,19.6,19.6,94,0.00,OVC,,0.00,158.0,WeatherDisplay:10.37,2013-04-15 14:15:00,
2013-04-15 09:20:00,71.8,70.0,29.81,SSW,192,26.7,26.7,94,0.00,OVC,,0.00,200.0,WeatherDisplay:10.37,2013-04-15 14:20:00,
2013-04-15 09:26:00,71.9,69.8,29.81,South,189,28.8,28.8,93,0.00,OVC,,0.00,218.0,WeatherDisplay:10.37,2013-04-15 14:26:00,
2013-04-15 09:31:00,72.2,69.7,29.81,SSW,193,19.6,19.6,92,0.00,OVC,,0.00,198.0,WeatherDisplay:10.37,2013-04-15 14:31:00,
2013-04-15 09:37:00,72.4,69.6,29.81,SSW,213,25.3,25.3,91,0.00,OVC,,0.00,237.0,WeatherDisplay:10.37,2013-04-15 14:37:00,
2013-04-15 09:42:00,72.5,69.7,29.81,SSW,205,27.6,27.6,91,0.00,OVC,,0.00,221.0,WeatherDisplay:10.37,2013-04-15 14:42:00,
2013-04-15 09:47:00,72.7,69.6,29.81,South,184,27.6,27.6,90,0.00,OVC,,0.00,306.0,WeatherDisplay:10.37,2013-04-15 14:47:00,
2013-04-15 09:53:00,73.0,69.9,29.81,South,191,25.3,25.3,90,0.00,OVC,,0.00,317.0,WeatherDisplay:10.37,2013-04-15 14:53:00,
2013-04-15 09:58:00,73.3,69.9,29.81,SSW,200,26.5,26.5,89,0.00,OVC,,0.00,334.0,WeatherDisplay:10.37,2013-04-15 14:58:00,
2013-04-15 10:03:00,73.6,69.8,29.81,South,187,21.9,21.9,88,0.00,OVC,,0.00,361.0,WeatherDisplay:10.37,2013-04-15 15:03:00,
2013-04-15 10:08:00,74.0,70.2,29.81,SSW,207,27.6,27.6,88,0.00,OVC,,0.00,359.0,WeatherDisplay:10.37,2013-04-15 15:08:00,
2013-04-15 10:13:00,74.2,70.1,29.81,SSW,195,23.1,23.1,87,0.00,OVC,,0.00,365.0,WeatherDisplay:10.37,2013-04-15 15:13:00,
2013-04-15 10:18:00,74.4,69.9,29.81,South,188,23.0,23.0,86,0.00,OVC,,0.00,367.0,WeatherDisplay:10.37,2013-04-15 15:18:00,
2013-04-15 10:23:00,74.8,70.3,29.81,SSW,192,24.2,24.2,86,0.00,OVC,,0.00,991.0,WeatherDisplay:10.37,2013-04-15 15:23:00,
2013-04-15 10:28:00,74.9,69.7,29.82,South,181,35.7,35.7,84,0.00,OVC,,0.00,361.0,WeatherDisplay:10.37,2013-04-15 15:28:00,
2013-04-15 10:34:00,74.8,69.3,29.82,South,184,21.9,21.9,83,0.00,OVC,,0.00,939.0,WeatherDisplay:10.37,2013-04-15 15:34:00,
2013-04-15 10:39:00,74.9,69.7,29.82,SSW,202,25.3,25.3,84,0.00,OVC,,0.00,297.0,WeatherDisplay:10.37,2013-04-15 15:39:00,
2013-04-15 10:44:00,75.0,69.8,29.82,SSE,162,26.5,26.5,84,0.00,OVC,,0.00,308.0,WeatherDisplay:10.37,2013-04-15 15:44:00,
2013-04-15 10:49:00,75.5,70.3,29.82,SSW,201,22.2,22.2,84,0.00,OVC,,0.00,790.0,WeatherDisplay:10.37,2013-04-15 15:49:00,
2013-04-15 10:55:00,75.8,69.9,29.82,SSW,199,21.9,21.9,82,0.00,OVC,,0.00,380.0,WeatherDisplay:10.37,2013-04-15 15:55:00,
2013-04-15 11:00:00,75.6,69.4,29.82,SSW,197,23.0,32.0,81,0.00,OVC,,0.00,304.0,WeatherDisplay:10.37,2013-04-15 16:00:00,
2013-04-15 11:05:00,76.0,69.8,29.82,SSW,196,15.0,31.0,81,0.00,OVC,,0.00,666.0,WeatherDisplay:10.37,2013-04-15 16:05:00,
2013-04-15 11:10:00,76.1,69.8,29.82,SSW,204,28.8,28.8,81,0.00,OVC,,0.00,704.0,WeatherDisplay:10.37,2013-04-15 16:10:00,
2013-04-15 11:15:00,76.9,70.6,29.82,SSW,202,18.4,18.4,81,0.00,OVC,,0.00,963.0,WeatherDisplay:10.37,2013-04-15 16:15:00,
2013-04-15 11:20:00,78.0,70.2,29.82,SSW,204,25.3,25.3,77,0.00,OVC,,0.00,1018.0,WeatherDisplay:10.37,2013-04-15 16:20:00,
2013-04-15 11:25:00,78.5,70.3,29.82,South,177,27.6,27.6,76,0.00,OVC,,0.00,973.0,WeatherDisplay:10.37,2013-04-15 16:25:00,
2013-04-15 11:30:00,79.1,70.1,29.82,South,191,32.2,32.2,74,0.00,OVC,,0.00,950.0,WeatherDisplay:10.37,2013-04-15 16:30:00,
2013-04-15 11:36:00,79.7,70.3,29.82,SE,137,29.9,29.9,73,0.00,OVC,,0.00,935.0,WeatherDisplay:10.37,2013-04-15 16:36:00,
2013-04-15 11:42:00,79.3,69.9,29.83,SSW,192,29.4,29.4,73,0.00,OVC,,0.00,938.0,WeatherDisplay:10.37,2013-04-15 16:42:00,
2013-04-15 11:47:00,79.2,70.2,29.83,SSW,213,25.3,25.3,74,0.00,OVC,,0.00,941.0,WeatherDisplay:10.37,2013-04-15 16:47:00,
2013-04-15 11:52:00,79.7,69.9,29.82,SSW,202,29.9,29.9,72,0.00,OVC,,0.00,938.0,WeatherDisplay:10.37,2013-04-15 16:52:00,
2013-04-15 11:58:00,80.5,70.2,29.82,South,187,24.2,24.2,71,0.00,OVC,,0.00,914.0,WeatherDisplay:10.37,2013-04-15 16:58:00,
2013-04-15 12:03:00,80.5,69.8,29.82,South,181,34.5,34.5,70,0.00,OVC,,0.00,941.0,WeatherDisplay:10.37,2013-04-15 17:03:00,
2013-04-15 12:08:00,80.5,70.2,29.82,SSW,195,31.5,31.5,71,0.00,OVC,,0.00,819.0,WeatherDisplay:10.37,2013-04-15 17:08:00,
2013-04-15 12:13:00,80.8,70.1,29.83,South,178,28.8,28.8,70,0.00,OVC,,0.00,871.0,WeatherDisplay:10.37,2013-04-15 17:13:00,
2013-04-15 12:18:00,81.3,71.4,29.83,South,182,28.8,28.8,72,0.00,OVC,,0.00,943.0,WeatherDisplay:10.37,2013-04-15 17:18:00,
2013-04-15 12:21:00,81.2,69.6,29.82,SSW,203,28.8,28.8,68,0.00,OVC,,0.00,947.0,WeatherDisplay:10.37,2013-04-15 17:21:00,
2013-04-15 12:22:00,81.3,70.2,29.83,SW,231,26.5,26.5,69,0.00,OVC,,0.00,946.0,WeatherDisplay:10.37,2013-04-15 17:22:00,
2013-04-15 12:25:00,81.4,69.8,29.82,South,183,28.8,28.8,68,0.00,OVC,,0.00,941.0,WeatherDisplay:10.37,2013-04-15 17:25:00,
2013-04-15 12:30:00,81.1,69.1,29.83,SSW,201,24.0,35.0,67,0.00,OVC,,0.00,926.0,WeatherDisplay:10.37,2013-04-15 17:30:00,
2013-04-15 12:35:00,81.2,69.6,29.82,SSW,196,18.0,30.0,68,0.00,OVC,,0.00,910.0,WeatherDisplay:10.37,2013-04-15 17:35:00,
2013-04-15 12:40:00,81.7,70.5,29.82,SSW,213,21.9,21.9,69,0.00,OVC,,0.00,962.0,WeatherDisplay:10.37,2013-04-15 17:40:00,
2013-04-15 12:45:00,82.1,70.5,29.82,South,180,26.5,26.5,68,0.00,OVC,,0.00,998.0,WeatherDisplay:10.37,2013-04-15 17:45:00,
2013-04-15 12:50:00,82.3,70.2,29.82,SSW,195,24.2,24.2,67,0.00,OVC,,0.00,778.0,WeatherDisplay:10.37,2013-04-15 17:50:00,
2013-04-15 12:55:00,82.5,70.4,29.82,South,185,24.2,24.2,67,0.00,OVC,,0.00,941.0,WeatherDisplay:10.37,2013-04-15 17:55:00,
2013-04-15 13:01:00,82.9,71.3,29.82,SSW,192,26.5,26.5,68,0.00,CLR,,0.00,955.0,WeatherDisplay:10.37,2013-04-15 18:01:00,
2013-04-15 13:06:00,83.8,71.7,29.82,South,172,21.9,21.9,67,0.00,CLR,,0.00,1002.0,WeatherDisplay:10.37,2013-04-15 18:06:00,
2013-04-15 13:11:00,83.9,71.8,29.82,SSW,193,19.6,19.6,67,0.00,CLR,,0.00,943.0,WeatherDisplay:10.37,2013-04-15 18:11:00,
2013-04-15 13:16:00,83.0,70.9,29.82,SSW,196,28.8,28.8,67,0.00,CLR,,0.00,958.0,WeatherDisplay:10.37,2013-04-15 18:16:00,
2013-04-15 13:22:00,82.9,69.9,29.81,South,173,27.6,27.6,65,0.00,CLR,,0.00,953.0,WeatherDisplay:10.37,2013-04-15 18:22:00,
2013-04-15 13:27:00,83.0,70.9,29.81,SSW,205,26.5,26.5,67,0.00,CLR,,0.00,916.0,WeatherDisplay:10.37,2013-04-15 18:27:00,
2013-04-15 13:29:00,83.0,70.9,29.81,SSW,198,24.2,24.2,67,0.00,CLR,,0.00,959.0,WeatherDisplay:10.37,2013-04-15 18:29:00,
2013-04-15 13:30:00,83.0,70.5,29.81,South,174,28.8,28.8,66,0.00,CLR,,0.00,951.0,WeatherDisplay:10.37,2013-04-15 18:30:00,
2013-04-15 13:33:00,83.4,69.9,29.81,South,183,32.2,32.2,64,0.00,CLR,,0.00,938.0,WeatherDisplay:10.37,2013-04-15 18:33:00,
2013-04-15 13:38:00,83.5,70.9,29.81,SSW,192,27.6,27.6,66,0.00,CLR,,0.00,933.0,WeatherDisplay:10.37,2013-04-15 18:38:00,
2013-04-15 13:43:00,83.5,70.0,29.81,South,190,24.2,24.2,64,0.00,CLR,,0.00,923.0,WeatherDisplay:10.37,2013-04-15 18:43:00,
2013-04-15 13:48:00,83.5,70.5,29.81,SSW,204,23.0,23.0,65,0.00,CLR,,0.00,946.0,WeatherDisplay:10.37,2013-04-15 18:48:00,
2013-04-15 13:54:00,83.8,69.9,29.80,South,190,27.6,27.6,63,0.00,CLR,,0.00,932.0,WeatherDisplay:10.37,2013-04-15 18:54:00,
2013-04-15 13:59:00,84.1,71.1,29.81,SSE,157,25.3,25.3,65,0.00,CLR,,0.00,914.0,WeatherDisplay:10.37,2013-04-15 18:59:00,
2013-04-15 14:04:00,85.3,71.7,29.80,South,180,21.9,21.9,64,0.00,CLR,,0.00,925.0,WeatherDisplay:10.37,2013-04-15 19:04:00,
2013-04-15 14:09:00,84.4,69.5,29.81,South,180,32.2,32.2,61,0.00,CLR,,0.00,917.0,WeatherDisplay:10.37,2013-04-15 19:09:00,
2013-04-15 14:14:00,84.9,70.9,29.80,South,188,25.8,25.8,63,0.00,CLR,,0.00,928.0,WeatherDisplay:10.37,2013-04-15 19:14:00,
2013-04-15 14:19:00,84.7,69.8,29.80,SSW,205,31.1,31.1,61,0.00,CLR,,0.00,917.0,WeatherDisplay:10.37,2013-04-15 19:19:00,
2013-04-15 14:24:00,84.6,70.1,29.80,SSW,197,26.5,26.5,62,0.00,CLR,,0.00,893.0,WeatherDisplay:10.37,2013-04-15 19:24:00,
2013-04-15 14:30:00,85.1,70.6,29.80,SSW,194,23.0,34.0,62,0.00,CLR,,0.00,879.0,WeatherDisplay:10.37,2013-04-15 19:30:00,
2013-04-15 14:35:00,85.0,70.0,29.79,SSW,192,20.0,30.0,61,0.00,CLR,,0.00,874.0,WeatherDisplay:10.37,2013-04-15 19:35:00,
2013-04-15 14:40:00,85.2,71.2,29.79,South,191,10.0,35.0,63,0.00,CLR,,0.00,872.0,WeatherDisplay:10.37,2013-04-15 19:40:00,
2013-04-15 14:45:00,85.8,69.8,29.79,SSE,165,25.3,25.3,59,0.00,CLR,,0.00,873.0,WeatherDisplay:10.37,2013-04-15 19:45:00,
2013-04-15 14:51:00,85.4,70.4,29.79,SSE,152,27.6,27.6,61,0.00,CLR,,0.00,817.0,WeatherDisplay:10.37,2013-04-15 19:51:00,
2013-04-15 14:56:00,85.6,72.0,29.79,SSW,196,28.8,28.8,64,0.00,CLR,,0.00,811.0,WeatherDisplay:10.37,2013-04-15 19:56:00,
2013-04-15 14:57:00,85.7,72.1,29.79,SSW,201,26.5,26.5,64,0.00,CLR,,0.00,757.0,WeatherDisplay:10.37,2013-04-15 19:57:00,
2013-04-15 14:58:00,85.7,72.1,29.79,South,181,24.2,24.2,64,0.00,CLR,,0.00,550.0,WeatherDisplay:10.37,2013-04-15 19:58:00,
2013-04-15 15:00:00,85.4,71.3,29.79,South,181,18.0,29.0,63,0.00,CLR,,0.00,676.0,WeatherDisplay:10.37,2013-04-15 20:00:00,
2013-04-15 15:02:00,85.7,72.1,29.79,South,191,24.2,24.2,64,0.00,CLR,,0.00,789.0,WeatherDisplay:10.37,2013-04-15 20:02:00,
2013-04-15 15:03:00,86.1,73.0,29.79,South,174,16.1,16.1,65,0.00,CLR,,0.00,857.0,WeatherDisplay:10.37,2013-04-15 20:03:00,
2013-04-15 15:08:00,86.1,72.0,29.78,South,191,21.9,21.9,63,0.00,CLR,,0.00,835.0,WeatherDisplay:10.37,2013-04-15 20:08:00,
2013-04-15 15:13:00,86.9,71.8,29.78,SSE,165,31.1,31.1,61,0.00,CLR,,0.00,823.0,WeatherDisplay:10.37,2013-04-15 20:13:00,
2013-04-15 15:18:00,85.7,69.7,29.78,South,189,27.6,27.6,59,0.00,CLR,,0.00,813.0,WeatherDisplay:10.37,2013-04-15 20:18:00,
2013-04-15 15:24:00,85.8,69.3,29.78,South,177,31.1,31.1,58,0.00,CLR,,0.00,803.0,WeatherDisplay:10.37,2013-04-15 20:24:00,
2013-04-15 15:29:00,85.3,68.3,29.78,South,176,35.7,35.7,57,0.00,CLR,,0.00,796.0,WeatherDisplay:10.37,2013-04-15 20:29:00,
2013-04-15 15:34:00,85.6,69.6,29.78,South,170,30.9,30.9,59,0.00,CLR,,0.00,779.0,WeatherDisplay:10.37,2013-04-15 20:34:00,
2013-04-15 15:39:00,85.7,70.2,29.77,SSE,148,23.0,23.0,60,0.00,CLR,,0.00,779.0,WeatherDisplay:10.37,2013-04-15 20:39:00,
2013-04-15 15:44:00,86.2,70.7,29.78,South,172,24.2,24.2,60,0.00,CLR,,0.00,762.0,WeatherDisplay:10.37,2013-04-15 20:44:00,
2013-04-15 15:49:00,86.3,69.8,29.77,South,179,21.9,21.9,58,0.00,CLR,,0.00,757.0,WeatherDisplay:10.37,2013-04-15 20:49:00,
2013-04-15 15:55:00,86.4,69.9,29.71,South,189,33.4,33.4,58,0.00,CLR,,0.00,744.0,WeatherDisplay:10.37,2013-04-15 20:55:00,
2013-04-15 16:00:00,86.3,69.8,29.72,South,181,16.0,27.0,58,0.00,CLR,,0.00,739.0,WeatherDisplay:10.37,2013-04-15 21:00:00,
2013-04-15 16:05:00,86.2,69.2,29.70,SSW,192,26.5,26.5,57,0.00,CLR,,0.00,701.0,WeatherDisplay:10.37,2013-04-15 21:05:00,
2013-04-15 16:10:00,85.9,69.9,29.70,SSE,164,29.9,29.9,59,0.00,CLR,,0.00,698.0,WeatherDisplay:10.37,2013-04-15 21:10:00,
2013-04-15 16:15:00,85.8,69.3,29.70,South,174,13.0,32.0,58,0.00,CLR,,0.00,693.0,WeatherDisplay:10.37,2013-04-15 21:15:00,
2013-04-15 16:20:00,86.1,69.1,29.70,South,170,21.0,31.0,57,0.00,FEW,,0.00,550.0,WeatherDisplay:10.37,2013-04-15 21:20:00,
2013-04-15 16:25:00,86.1,69.6,29.70,South,177,18.0,29.0,58,0.00,CLR,,0.00,716.0,WeatherDisplay:10.37,2013-04-15 21:25:00,
2013-04-15 16:30:00,86.4,70.9,29.69,South,179,17.0,27.0,60,0.00,FEW,,0.00,627.0,WeatherDisplay:10.37,2013-04-15 21:30:00,
2013-04-15 16:35:00,86.2,69.7,29.69,South,174,15.0,26.0,58,0.00,SCT,,0.00,534.0,WeatherDisplay:10.37,2013-04-15 21:35:00,
2013-04-15 16:40:00,85.7,69.2,29.70,South,175,18.0,30.0,58,0.00,SCT,,0.00,570.0,WeatherDisplay:10.37,2013-04-15 21:40:00,
2013-04-15 16:45:00,85.9,70.4,29.69,South,182,16.0,25.0,60,0.00,SCT,,0.00,565.0,WeatherDisplay:10.37,2013-04-15 21:45:00,
2013-04-15 17:36:00,84.7,68.3,29.70,South,175,28.5,28.5,58,0.00,BKN,,0.00,361.0,WeatherDisplay:10.37,2013-04-15 22:36:00,
2013-04-15 17:41:00,84.8,68.4,29.70,SSW,200,25.3,25.3,58,0.00,BKN,,0.00,520.0,WeatherDisplay:10.37,2013-04-15 22:41:00,
2013-04-15 17:46:00,85.2,68.2,29.70,South,173,23.0,23.0,57,0.00,BKN,,0.00,509.0,WeatherDisplay:10.37,2013-04-15 22:46:00,
2013-04-15 17:52:00,85.4,67.4,29.71,South,180,25.3,25.3,55,0.00,OVC,,0.00,302.0,WeatherDisplay:10.37,2013-04-15 22:52:00,
2013-04-15 17:57:00,85.4,67.9,29.70,SSW,193,20.7,20.7,56,0.00,OVC,,0.00,179.0,WeatherDisplay:10.37,2013-04-15 22:57:00,
2013-04-15 18:02:00,84.8,66.8,29.70,SSW,199,29.9,29.9,55,0.00,OVC,,0.00,262.0,WeatherDisplay:10.37,2013-04-15 23:02:00,
2013-04-15 18:07:00,84.3,66.4,29.70,SSW,202,25.3,25.3,55,0.00,OVC,,0.00,121.0,WeatherDisplay:10.37,2013-04-15 23:07:00,
2013-04-15 18:12:00,83.9,66.5,29.70,SSW,197,24.2,24.2,56,0.00,OVC,,0.00,299.0,WeatherDisplay:10.37,2013-04-15 23:12:00,
2013-04-15 18:17:00,83.6,67.3,29.71,SSW,198,19.6,19.6,58,0.00,OVC,,0.00,290.0,WeatherDisplay:10.37,2013-04-15 23:17:00,
2013-04-15 18:23:00,83.6,68.2,29.71,SW,217,15.0,15.0,60,0.00,OVC,,0.00,155.0,WeatherDisplay:10.37,2013-04-15 23:23:00,
2013-04-15 18:28:00,83.2,67.4,29.71,South,189,21.9,21.9,59,0.00,OVC,,0.00,138.0,WeatherDisplay:10.37,2013-04-15 23:28:00,
2013-04-15 18:33:00,83.0,67.7,29.71,SSW,203,21.9,21.9,60,0.00,OVC,,0.00,137.0,WeatherDisplay:10.37,2013-04-15 23:33:00,
2013-04-15 18:38:00,82.7,67.9,29.70,SSW,198,17.3,17.3,61,0.00,OVC,,0.00,110.0,WeatherDisplay:10.37,2013-04-15 23:38:00,
2013-04-15 18:43:00,82.5,68.2,29.70,SSW,206,17.3,17.3,62,0.00,OVC,,0.00,127.0,WeatherDisplay:10.37,2013-04-15 23:43:00,
2013-04-15 18:49:00,82.4,68.5,29.70,SSW,192,20.7,20.7,63,0.00,OVC,,0.00,252.0,WeatherDisplay:10.37,2013-04-15 23:49:00,
2013-04-15 18:54:00,82.4,68.5,29.70,SSW,194,17.3,17.3,63,0.00,OVC,,0.00,127.0,WeatherDisplay:10.37,2013-04-15 23:54:00,
2013-04-15 18:59:00,82.2,68.3,29.70,South,173,18.4,18.4,63,0.00,OVC,,0.00,236.0,WeatherDisplay:10.37,2013-04-15 23:59:00,
2013-04-15 19:04:00,82.2,68.8,29.70,SSE,159,11.5,11.5,64,0.00,OVC,,0.00,168.0,WeatherDisplay:10.37,2013-04-16 00:04:00,
2013-04-15 19:09:00,82.0,68.6,29.71,South,177,13.8,13.8,64,0.00,OVC,,0.00,139.0,WeatherDisplay:10.37,2013-04-16 00:09:00,
2013-04-15 19:15:00,81.7,68.3,29.71,South,181,15.0,15.0,64,0.00,OVC,,0.00,78.0,WeatherDisplay:10.37,2013-04-16 00:15:00,
2013-04-15 19:20:00,81.5,68.1,29.72,South,172,8.0,16.0,64,0.00,OVC,,0.00,51.0,WeatherDisplay:10.37,2013-04-16 00:20:00,
2013-04-15 19:25:00,81.2,68.3,29.72,SSE,168,7.0,12.0,65,0.00,OVC,,0.00,44.0,WeatherDisplay:10.37,2013-04-16 00:25:00,
2013-04-15 19:30:00,80.8,68.4,29.73,SSE,166,8.0,15.0,66,0.00,OVC,,0.00,45.0,WeatherDisplay:10.37,2013-04-16 00:30:00,
2013-04-15 19:35:00,80.5,68.5,29.73,SSE,164,8.0,15.0,67,0.00,OVC,,0.00,35.0,WeatherDisplay:10.37,2013-04-16 00:35:00,
2013-04-15 19:40:00,80.2,68.2,29.72,SSE,160,7.0,15.0,67,0.00,OVC,,0.00,50.0,WeatherDisplay:10.37,2013-04-16 00:40:00,
2013-04-15 19:45:00,79.8,68.3,29.73,SSE,157,7.0,13.0,68,0.00,OVC,,0.00,33.0,WeatherDisplay:10.37,2013-04-16 00:45:00,
2013-04-15 19:50:00,79.5,68.4,29.72,SSE,158,8.0,15.0,69,0.00,OVC,,0.00,16.0,WeatherDisplay:10.37,2013-04-16 00:50:00,
2013-04-15 19:55:00,79.2,68.5,29.74,SSE,160,8.0,14.0,70,0.00,OVC,,0.00,10.0,WeatherDisplay:10.37,2013-04-16 00:55:00,
2013-04-15 20:00:00,78.9,68.7,29.74,SSE,161,7.0,13.0,71,0.00,CLR,,0.00,0.0,WeatherDisplay:10.37,2013-04-16 01:00:00,
2013-04-15 20:05:00,78.6,68.8,29.76,SSE,163,8.0,11.0,72,0.00,CLR,,0.00,0.0,WeatherDisplay:10.37,2013-04-16 01:05:00,
2013-04-15 20:10:00,78.2,68.8,29.77,SSE,161,8.0,12.0,73,0.00,CLR,,0.00,0.0,WeatherDisplay:10.37,2013-04-16 01:10:00,
2013-04-15 20:15:00,77.9,68.9,29.78,SSE,161,9.0,17.0,74,0.00,CLR,,0.00,0.0,WeatherDisplay:10.37,2013-04-16 01:15:00,
2013-04-15 20:20:00,77.7,69.1,29.76,SSE,163,10.0,16.0,75,0.00,CLR,,0.00,1.0,WeatherDisplay:10.37,2013-04-16 01:20:00,
2013-04-15 20:25:00,77.5,69.0,29.77,SSE,162,9.0,16.0,75,0.00,CLR,,0.00,0.0,WeatherDisplay:10.37,2013-04-16 01:25:00,
2013-04-15 20:30:00,77.4,69.2,29.77,SSE,162,10.0,18.0,76,0.00,CLR,,0.00,0.0,WeatherDisplay:10.37,2013-04-16 01:30:00,
2013-04-15 20:35:00,77.3,69.1,29.78,SSE,162,10.0,17.0,76,0.00,CLR,,0.00,0.0,WeatherDisplay:10.37,2013-04-16 01:35:00,
2013-04-15 20:40:00,77.1,69.3,29.77,SSE,164,10.0,18.0,77,0.00,CLR,,0.00,1.0,WeatherDisplay:10.37,2013-04-16 01:40:00,
2013-04-15 20:45:00,77.0,69.2,29.81,SSE,159,16.1,16.1,77,0.00,CLR,,0.00,1.0,WeatherDisplay:10.37,2013-04-16 01:45:00,
2013-04-15 20:50:00,77.0,69.2,29.80,SSE,166,14.0,20.0,77,0.00,CLR,,0.00,0.0,WeatherDisplay:10.37,2013-04-16 01:50:00,
2013-04-15 20:55:00,77.1,69.3,29.81,South,170,17.3,17.3,77,0.00,CLR,,0.00,1.0,WeatherDisplay:10.37,2013-04-16 01:55:00,
2013-04-15 21:00:00,77.0,68.9,29.81,SSE,168,20.7,20.7,76,0.00,CLR,,0.00,1.0,WeatherDisplay:10.37,2013-04-16 02:00:00,
2013-04-15 21:05:00,76.9,68.8,29.80,SSE,164,19.6,19.6,76,0.00,CLR,,0.00,1.0,WeatherDisplay:10.37,2013-04-16 02:05:00,
2013-04-15 21:11:00,77.0,68.9,29.81,South,171,21.9,21.9,76,0.00,CLR,,0.00,1.0,WeatherDisplay:10.37,2013-04-16 02:11:00,
2013-04-15 21:16:00,76.9,68.8,29.81,SSE,153,19.6,19.6,76,0.00,CLR,,0.00,1.0,WeatherDisplay:10.37,2013-04-16 02:16:00,
2013-04-15 21:21:00,76.8,68.7,29.81,South,180,19.6,19.6,76,0.00,CLR,,0.00,1.0,WeatherDisplay:10.37,2013-04-16 02:21:00,
2013-04-15 21:26:00,76.7,68.6,29.81,SSE,158,19.6,19.6,76,0.00,CLR,,0.00,1.0,WeatherDisplay:10.37,2013-04-16 02:26:00,
2013-04-15 21:31:00,76.7,68.6,29.81,SSE,155,17.3,17.3,76,0.00,CLR,,0.00,1.0,WeatherDisplay:10.37,2013-04-16 02:31:00,
2013-04-15 21:37:00,76.5,68.4,29.81,SSE,165,17.3,17.3,76,0.00,CLR,,0.00,1.0,WeatherDisplay:10.37,2013-04-16 02:37:00,
2013-04-15 21:42:00,76.3,68.6,29.81,South,182,18.4,18.4,77,0.00,CLR,,0.00,1.0,WeatherDisplay:10.37,2013-04-16 02:42:00,
2013-04-15 21:47:00,76.1,68.4,29.81,South,185,18.4,18.4,77,0.00,CLR,,0.00,1.0,WeatherDisplay:10.37,2013-04-16 02:47:00,
2013-04-15 21:52:00,75.9,68.5,29.81,SSE,165,20.7,20.7,78,0.00,CLR,,0.00,1.0,WeatherDisplay:10.37,2013-04-16 02:52:00,
2013-04-15 21:58:00,75.8,68.4,29.81,SE,143,17.3,17.3,78,0.00,CLR,,0.00,1.0,WeatherDisplay:10.37,2013-04-16 02:58:00,
2013-04-15 22:03:00,75.9,68.5,29.81,South,179,18.6,18.6,78,0.00,CLR,,0.00,1.0,WeatherDisplay:10.37,2013-04-16 03:03:00,
2013-04-15 22:08:00,75.9,68.2,29.81,South,171,19.6,19.6,77,0.00,CLR,,0.00,1.0,WeatherDisplay:10.37,2013-04-16 03:08:00,
2013-04-15 22:13:00,76.1,68.4,29.82,South,175,21.9,21.9,77,0.00,CLR,,0.00,1.0,WeatherDisplay:10.37,2013-04-16 03:13:00,
2013-04-15 22:18:00,76.2,68.5,29.82,SSW,198,19.6,19.6,77,0.00,CLR,,0.00,1.0,WeatherDisplay:10.37,2013-04-16 03:18:00,
2013-04-15 22:23:00,76.2,68.1,29.82,South,177,20.7,20.7,76,0.00,CLR,,0.00,1.0,WeatherDisplay:10.37,2013-04-16 03:23:00,
2013-04-15 22:29:00,76.3,68.2,29.82,South,186,27.6,27.6,76,0.00,CLR,,0.00,1.0,WeatherDisplay:10.37,2013-04-16 03:29:00,
2013-04-15 22:34:00,76.2,68.1,29.82,SSE,167,19.6,19.6,76,0.00,CLR,,0.00,1.0,WeatherDisplay:10.37,2013-04-16 03:34:00,
2013-04-15 22:39:00,76.1,68.4,29.82,South,173,20.7,20.7,77,0.00,CLR,,0.00,1.0,WeatherDisplay:10.37,2013-04-16 03:39:00,
2013-04-15 22:44:00,76.0,68.3,29.82,South,169,21.9,21.9,77,0.00,CLR,,0.00,1.0,WeatherDisplay:10.37,2013-04-16 03:44:00,
2013-04-15 22:49:00,75.7,68.4,29.81,SSE,163,20.7,20.7,78,0.00,CLR,,0.00,1.0,WeatherDisplay:10.37,2013-04-16 03:49:00,
2013-04-15 22:54:00,75.5,68.2,29.82,South,175,19.6,19.6,78,0.00,CLR,,0.00,1.0,WeatherDisplay:10.37,2013-04-16 03:54:00,
2013-04-15 22:59:00,75.2,68.2,29.82,South,173,23.0,23.0,79,0.00,CLR,,0.00,1.0,WeatherDisplay:10.37,2013-04-16 03:59:00,
2013-04-15 23:00:00,75.1,68.1,29.81,SSE,162,21.9,21.9,79,0.00,CLR,,0.00,0.0,WeatherDisplay:10.37,2013-04-16 04:00:00,
2013-04-15 23:01:00,75.1,68.1,29.82,SSE,168,20.7,20.7,79,0.00,CLR,,0.00,1.0,WeatherDisplay:10.37,2013-04-16 04:01:00,
2013-04-15 23:06:00,74.9,68.3,29.82,SSE,161,18.4,18.4,80,0.00,CLR,,0.00,1.0,WeatherDisplay:10.37,2013-04-16 04:06:00,
2013-04-15 23:11:00,74.8,68.6,29.82,SE,145,18.4,18.4,81,0.00,CLR,,0.00,1.0,WeatherDisplay:10.37,2013-04-16 04:11:00,
2013-04-15 23:16:00,74.6,68.4,29.82,South,184,25.3,25.3,81,0.00,CLR,,0.00,1.0,WeatherDisplay:10.37,2013-04-16 04:16:00,
2013-04-15 23:21:00,74.5,68.6,29.82,SSW,206,17.3,17.3,82,0.00,CLR,,0.00,1.0,WeatherDisplay:10.37,2013-04-16 04:21:00,
2013-04-15 23:27:00,74.5,68.6,29.82,SSW,192,23.0,23.0,82,0.00,CLR,,0.00,1.0,WeatherDisplay:10.37,2013-04-16 04:27:00,
2013-04-15 23:32:00,74.5,68.6,29.82,South,180,20.7,20.7,82,0.00,CLR,,0.00,1.0,WeatherDisplay:10.37,2013-04-16 04:32:00,
2013-04-15 23:37:00,74.4,68.9,29.82,South,182,24.2,24.2,83,0.00,CLR,,0.00,1.0,WeatherDisplay:10.37,2013-04-16 04:37:00,
2013-04-15 23:42:00,74.3,68.8,29.82,SSE,168,24.2,24.2,83,0.00,CLR,,0.00,1.0,WeatherDisplay:10.37,2013-04-16 04:42:00,
2013-04-15 23:48:00,74.1,68.6,29.82,South,170,18.4,18.4,83,0.00,CLR,,0.00,1.0,WeatherDisplay:10.37,2013-04-16 04:48:00,
2013-04-15 23:53:00,73.9,68.8,29.82,South,185,21.9,21.9,84,0.00,CLR,,0.00,1.0,WeatherDisplay:10.37,2013-04-16 04:53:00,
2013-04-15 23:58:00,73.8,68.7,29.83,South,180,20.7,20.7,84,0.00,CLR,,0.00,1.0,WeatherDisplay:10.37,2013-04-16 04:58:00,